This is the latest recevied weather packets stored in our database for station/object EA1FBN. If no packets are shown the sender has not sent any weather packets the latest 10 day(s).
| Time | Temp. | Humidity | Pressure | Rain* | Wind** | Luminosity | Snow |
|---|---|---|---|---|---|---|---|
| 1787918949 | 18.33° C | 63% | 1021.9 hPa | 0.25 mm | - | - | - |
| 1787918649 | 18.89° C | 64% | 1022 hPa | 0.25 mm | - | - | - |
| 1787918349 | 18.33° C | 64% | 1022.1 hPa | 0 mm | - | - | - |
| 1787918049 | 18.33° C | 67% | 1022.1 hPa | 0 mm | - | - | - |
| 1787917749 | 17.78° C | 67% | 1022.2 hPa | 0 mm | - | - | - |
| 1787917449 | 17.22° C | 66% | 1022.3 hPa | 0 mm | - | - | - |
| 1787917149 | 17.78° C | 65% | 1022.3 hPa | 0 mm | - | - | - |
| 1787916849 | 17.78° C | 66% | 1022.4 hPa | 0 mm | - | - | - |
| 1787916549 | 17.78° C | 67% | 1022.3 hPa | 0 mm | - | - | - |
| 1787916249 | 17.78° C | 65% | 1022.3 hPa | 0 mm | - | - | - |
| 1787915949 | 17.22° C | 67% | 1022.3 hPa | 0 mm | - | - | - |
| 1787915649 | 17.22° C | 68% | 1022.3 hPa | 0 mm | - | - | - |
| 1787915349 | 16.67° C | 69% | 1022.4 hPa | 0 mm | - | - | - |
| 1787915049 | 16.67° C | 69% | 1022.4 hPa | 0 mm | - | - | - |
| 1787914749 | 16.67° C | 68% | 1022.5 hPa | 0 mm | - | - | - |
| 1787914449 | 16.67° C | 67% | 1022.5 hPa | 0 mm | - | - | - |
| 1787914149 | 16.67° C | 69% | 1022.5 hPa | 0 mm | - | - | - |
| 1787913849 | 16.67° C | 68% | 1022.5 hPa | 0 mm | - | - | - |
| 1787913549 | 16.11° C | 68% | 1022.5 hPa | 0 mm | - | - | - |
| 1787913249 | 16.11° C | 70% | 1022.6 hPa | 0 mm | - | - | - |
| 1787912949 | 15.56° C | 69% | 1022.6 hPa | 0 mm | - | - | - |
| 1787912649 | 15.56° C | 71% | 1022.6 hPa | 0 mm | - | - | - |
| 1787912349 | 15.56° C | 69% | 1022.6 hPa | 0 mm | - | - | - |
| 1787912049 | 16.11° C | 70% | 1022.5 hPa | 0 mm | - | - | - |
| 1787911749 | 16.11° C | 71% | 1022.5 hPa | 0 mm | - | - | - |
* Rain latest hour (hover to see other rain measurements)
** Current wind speed in m/s (hover to see current wind gust speed)